Weather History for Lordsburg, NM

Change the Weather History Date:

Friday, December 7, 2012

  Actual Average Record
Temperature  
Mean Temperature 52 °F -  
Max Temperature 68 °F 59 °F 68 °F (2012)
Min Temperature 37 °F 24 °F 23 °F (2013)
Degree Days  
Heating Degree Days 12    
Growing Degree Days 2 (Base 50)    
Moisture  
Dew Point 25 °F    
Average Humidity 38    
Maximum Humidity 57    
Minimum Humidity 26    
Precipitation  
Precipitation 0.00 in - - ()
Sea Level Pressure  
Sea Level Pressure 29.96 in    
Wind  
Wind Speed 4 mph (West)    
Max Wind Speed 17 mph    
Max Gust Speed 22 mph    
Visibility 10 miles    
Events      
Averages and records for this station are not official NWS values.
T = Trace of Precipitation, MM = Missing Value Source: NWS Daily Summary

Daily Weather History Graph

Daily Weather History Graph

Search for Another Location

Airport:

Trip Planner

Search our weather history database for the weather conditions in past years. The results will help you decide how hot, cold, wet, or windy it might be!

Date:

Astronomy

Dec. 07, 2012 Rise Set
Actual Time 7:03 AM MST 5:09 PM MST
Civil Twilight 6:36 AM MST 5:36 PM MST
Nautical Twilight 6:05 AM MST 6:07 PM MST
Astronomical Twilight 5:36 AM MST 6:36 PM MST
Moon 12:44 AM MST (12/7) 12:51 PM MST (12/7)
Length of Visible Light 11h 00m
Length of Day
10h 06m
Last Quarter, 38% of the Moon is Illuminated
Dec 7
Last Quarter
Dec 13
New
Dec 19
First Quarter
Dec 28
Full
Jan 4
Last Quarter

Hourly Weather History & Observations

Time (MST) Temp. Windchill Dew Point Humidity Pressure Visibility Wind Dir Wind Speed Gust Speed Precip Events Conditions
12:15 AM 42.8 °F - 17.6 °F 36% 29.95 in 10.0 mi Calm Calm - N/A   Clear
12:35 AM 44.6 °F - 19.4 °F 37% 29.95 in 10.0 mi Calm Calm - N/A   Clear
12:55 AM 44.6 °F - 19.4 °F 37% 29.95 in 10.0 mi Calm Calm - N/A   Clear
1:15 AM 42.8 °F - 17.6 °F 36% 29.95 in 10.0 mi Calm Calm - N/A   Clear
1:35 AM 41.0 °F 39.0 °F 15.8 °F 36% 29.95 in 10.0 mi SSE 3.5 mph - N/A   Clear
1:55 AM 39.2 °F 37.0 °F 17.6 °F 42% 29.95 in 10.0 mi SE 3.5 mph - N/A   Clear
2:15 AM 41.0 °F 39.0 °F 17.6 °F 39% 29.95 in 10.0 mi SSE 3.5 mph - N/A   Clear
2:35 AM 42.8 °F 41.1 °F 17.6 °F 36% 29.95 in 10.0 mi SSE 3.5 mph - N/A   Clear
2:55 AM 42.8 °F - 19.4 °F 39% 29.95 in 10.0 mi Calm Calm - N/A   Clear
3:15 AM 42.8 °F - 21.2 °F 42% 29.95 in 10.0 mi Calm Calm - N/A   Clear
3:35 AM 41.0 °F - 19.4 °F 42% 29.95 in 10.0 mi Calm Calm - N/A   Clear
3:55 AM 37.4 °F - 17.6 °F 45% 29.95 in 10.0 mi Calm Calm - N/A   Clear
4:15 AM 37.4 °F 34.9 °F 14.0 °F 38% 29.95 in 10.0 mi SE 3.5 mph - N/A   Clear
4:35 AM 37.4 °F 34.9 °F 15.8 °F 41% 29.95 in 10.0 mi SE 3.5 mph - N/A   Clear
4:55 AM 37.4 °F 34.9 °F 17.6 °F 45% 29.95 in 10.0 mi SSE 3.5 mph - N/A   Clear
5:15 AM 37.4 °F 33.8 °F 17.6 °F 45% 29.95 in 10.0 mi SSE 4.6 mph - N/A   Clear
5:35 AM 37.4 °F 32.1 °F 17.6 °F 45% 29.96 in 10.0 mi SSE 6.9 mph - N/A   Clear
5:55 AM 37.4 °F 32.1 °F 17.6 °F 45% 29.97 in 10.0 mi SSE 6.9 mph - N/A   Clear
6:15 AM 39.2 °F 35.0 °F 19.4 °F 45% 29.97 in 10.0 mi South 5.8 mph - N/A   Clear
6:35 AM 37.4 °F 33.8 °F 19.4 °F 48% 29.98 in 10.0 mi South 4.6 mph - N/A   Clear
6:55 AM 37.4 °F 32.8 °F 19.4 °F 48% 29.98 in 10.0 mi South 5.8 mph - N/A   Clear
7:15 AM 37.4 °F 32.8 °F 19.4 °F 48% 29.99 in 10.0 mi South 5.8 mph - N/A   Clear
7:35 AM 41.0 °F 38.0 °F 21.2 °F 45% 29.99 in 10.0 mi South 4.6 mph - N/A   Clear
7:55 AM 39.2 °F - 17.6 °F 42% 29.99 in 10.0 mi Calm Calm - N/A   Clear
8:15 AM 41.0 °F - 17.6 °F 39% 29.99 in 10.0 mi Calm Calm - N/A   Clear
8:35 AM 44.6 °F - 19.4 °F 37% 30.00 in 10.0 mi Calm Calm - N/A   Clear
8:55 AM 48.2 °F - 21.2 °F 34% 30.00 in 10.0 mi Calm Calm - N/A   Clear
9:15 AM 51.8 °F - 23.0 °F 33% 30.01 in 10.0 mi Calm Calm - N/A   Clear
9:35 AM 55.4 °F - 26.6 °F 33% 30.01 in 10.0 mi Calm Calm - N/A   Clear
9:55 AM 57.2 °F - 26.6 °F 31% 30.01 in 10.0 mi Calm Calm - N/A   Clear
10:15 AM 59.0 °F - 26.6 °F 29% 30.01 in 10.0 mi Calm Calm - N/A   Clear
10:35 AM 60.8 °F - 28.4 °F 29% 30.00 in 10.0 mi NW 4.6 mph - N/A   Clear
10:55 AM 62.6 °F - 30.2 °F 30% 30.00 in 10.0 mi NW 4.6 mph - N/A   Clear
11:15 AM 62.6 °F - 30.2 °F 30% 29.99 in 10.0 mi NW 5.8 mph - N/A   Clear
11:35 AM 64.4 °F - 32.0 °F 30% 29.98 in 10.0 mi NW 9.2 mph - N/A   Clear
11:55 AM 64.4 °F - 32.0 °F 30% 29.97 in 10.0 mi WNW 10.4 mph - N/A   Clear
12:15 PM 66.2 °F - 32.0 °F 28% 29.97 in 10.0 mi WNW 6.9 mph - N/A   Clear
12:35 PM 66.2 °F - 32.0 °F 28% 29.95 in 10.0 mi West 11.5 mph 19.6 mph N/A   Clear
12:55 PM 68.0 °F - 32.0 °F 26% 29.95 in 10.0 mi West 10.4 mph 16.1 mph N/A   Clear
1:15 PM 68.0 °F - 32.0 °F 26% 29.94 in 10.0 mi WNW 9.2 mph 18.4 mph N/A   Clear
1:35 PM 68.0 °F - 32.0 °F 26% 29.93 in 10.0 mi West 15.0 mph 18.4 mph N/A   Clear
1:55 PM 68.0 °F - 32.0 °F 26% 29.92 in 10.0 mi WSW 11.5 mph 18.4 mph N/A   Clear
2:15 PM 68.0 °F - 32.0 °F 26% 29.91 in 10.0 mi West 15.0 mph 20.7 mph N/A   Clear
2:35 PM 68.0 °F - 32.0 °F 26% 29.91 in 10.0 mi WNW 15.0 mph 19.6 mph N/A   Clear
2:55 PM 68.0 °F - 32.0 °F 26% 29.91 in 10.0 mi WNW 11.5 mph 19.6 mph N/A   Clear
3:15 PM 68.0 °F - 32.0 °F 26% 29.91 in 10.0 mi West 12.7 mph 17.3 mph N/A   Clear
3:35 PM 68.0 °F - 32.0 °F 26% 29.91 in 10.0 mi WNW 17.3 mph 21.9 mph N/A   Clear
3:55 PM 68.0 °F - 32.0 °F 26% 29.91 in 10.0 mi NW 8.1 mph 19.6 mph N/A   Clear
4:15 PM 66.2 °F - 32.0 °F 28% 29.91 in 10.0 mi NW 11.5 mph 18.4 mph N/A   Clear
4:35 PM 66.2 °F - 32.0 °F 28% 29.92 in 10.0 mi NW 9.2 mph - N/A   Clear
4:55 PM 64.4 °F - 32.0 °F 30% 29.93 in 10.0 mi NW 10.4 mph - N/A   Clear
5:15 PM 62.6 °F - 32.0 °F 32% 29.93 in 10.0 mi NW 5.8 mph - N/A   Clear
5:35 PM 60.8 °F - 32.0 °F 34% 29.94 in 10.0 mi NW 5.8 mph - N/A   Clear
6:15 PM 57.2 °F - 30.2 °F 36% 29.95 in 10.0 mi NW 4.6 mph - N/A   Clear
6:35 PM 53.6 °F - 30.2 °F 41% 29.95 in 10.0 mi West 4.6 mph - N/A   Clear
6:55 PM 51.8 °F - 30.2 °F 44% 29.96 in 10.0 mi WNW 4.6 mph - N/A   Clear
7:35 PM 50.0 °F - 28.4 °F 43% 29.97 in 10.0 mi WNW 6.9 mph - N/A   Clear
7:55 PM 48.2 °F - 28.4 °F 46% 29.97 in 10.0 mi West 6.9 mph - N/A   Clear
8:15 PM 50.0 °F - 28.4 °F 43% 29.97 in 10.0 mi West 8.1 mph - N/A   Clear
8:55 PM 50.0 °F - 28.4 °F 43% 29.98 in 10.0 mi WNW 6.9 mph - N/A   Clear
9:35 PM 46.4 °F 44.3 °F 28.4 °F 50% 29.98 in 10.0 mi WNW 4.6 mph - N/A   Clear
9:55 PM 46.4 °F 42.9 °F 28.4 °F 50% 29.98 in 10.0 mi WNW 6.9 mph - N/A   Clear
10:15 PM 48.2 °F - 28.4 °F 46% 29.98 in 10.0 mi NW 8.1 mph - N/A   Clear
10:35 PM 44.6 °F 40.2 °F 28.4 °F 53% 29.98 in 10.0 mi WNW 8.1 mph - N/A   Clear
10:55 PM 44.6 °F 40.2 °F 28.4 °F 53% 29.98 in 10.0 mi WNW 8.1 mph - N/A   Clear
11:15 PM 44.6 °F 40.7 °F 28.4 °F 53% 29.98 in 10.0 mi WNW 6.9 mph - N/A   Clear
11:35 PM 42.8 °F 38.0 °F 28.4 °F 57% 29.98 in 10.0 mi West 8.1 mph - N/A   Clear
11:55 PM 46.4 °F 42.4 °F 30.2 °F 53% 29.98 in 10.0 mi West 8.1 mph - N/A   Clear